Погода в Ниве

Россия / Саратовская область     50°25′26″N   47°23′04″E
темп.,
°C
ветер,
м/с
пор.,
м/с
влажн.,
%
обл.,
%
осадки,
мм/ч
давл.,
гПа
погр.,
м
14 апреля, ср
ср1401:00+11в411564 0.0 1027195
04:00+9в510621 0.0 1026168
07:00+9в512660 0.0 1025231
10:00+15вюв811440 0.0 1025533
13:00+20вюв89300 0.0 10231246
16:00+21вюв78283 0.0 10211652
19:00+18в59390 0.0 1020224
22:00+14в512536 0.0 1020204
15 апреля, чт
чт1501:00+12в5126114 0.0 1019195
04:00+11в4106419 0.0 1018154
07:00+11в4965100 0.0 1018167
10:00+18вюв6840100 0.0 1017414
13:00+22вюв782795 0.0 10161299
16:00+22вюв772498 0.0 10152407
19:00+18в473631 0.0 1015142
22:00+15в4644100 0.0 101579
16 апреля, пт
пт1601:00+13всв4547100 0.0 101468
04:00+12всв4555100 0.0 101467
07:00+12св3558100 0.0 1015105
10:00+16всв4543100 0.0 1015409
13:00+20всв4432100 0.0 1016968
16:00+22всв342892 0.0 10161661
19:00+19всв343854 0.0 101652
22:00+15в334611 0.0 101727
17 апреля, сб
сб1701:00+13всв33555 0.0 101730
04:00+12всв33605 0.0 101823
07:00+12св466153 0.0 1019107
10:00+17в454344 0.0 1019555
13:00+21в443293 0.0 10192249
16:00+21в3327100 0.0 10192855
19:00+19всв583973 0.0 1018264
22:00+15зсз3464100 0.1 1021109
18 апреля, вс
вс1801:00+14всв6116349 0.1 1020518
04:00+11всв6127196 0.5 1020404
07:00+10всв61062100 0.3 1021374
10:00+10всв6970100 1.4 1021422
13:00+12всв796087 3.1 1021696
16:00+14всв794992 3.1 10211222
19:00+12в4864100 0.0 1021304
22:00+12всв8135588 0.0 1022497